Location: Marion Hill
(40.7303°N, 80.2959°W)
Time: 23:46:14
(UTC+00:00)

Cosmos 968 Rocket - Pass Details

Date: 29 October 2020
Orbit: 741 x 770 km, 74.0° (Epoch: 29 November)

Event Time Altitude Azimuth Distance (km) Brightness Sun altitude
Rises 23:17:51 0° 344° (NNW) 3,233 6.8 -11.4°
Reaches altitude 10° 23:20:17 10° 348° (NNW) 2,299 6.0 -11.9°
Maximum altitude 23:25:26 60° 68° (ENE) 863 3.5 -12.8°
Drops below altitude 10° 23:30:30 10° 149° (SSE) 2,264 5.7 -13.8°
Sets 23:32:53 0° 152° (SSE) 3,180 6.5 -14.2°
